MOVE-II (43780 NORAD) Tracking and Keplerian Element Data

This shows tracking and keplerian element data for the satellite.

Feedback or suggestion? Click here.




ElementValue
Catalog43780
NameMOVE-II
Epoch Orbit557
Epoch Day10.16934842
Epoch Year2019
RAAN83.9388
Inclination97.7629
Eccentricity0.0014678
Argument of Perigee140.0403
Mean Anonmoly220.19
Mean Motion14.94884125
Decay Rate1.88E-06
L11 43780U 18099Y 19010.16934842 .00000188 00000-0 22535-4 0 9995
L22 43780 97.7629 83.9388 0014678 140.0403 220.1900 14.94884125 5578

Live tracking and technical data element details for MOVE-II (NORAD 43780). MOVE-II can be tracked NOW for your location showing map with azimuth and elevation plus other details from your city location.

Track the satellite on the map from your city or location and see movement details for azimuth, elevation, latitude, longitude, range, height, and movement on the map or in text.







IsCatalogInMostPopularTable: catalog: 43780, numindb: 15
Update: records affected: 1



GetName: 43780 MOVE-II

Hit Count: updated at: Thu, 17 Jan 2019 14:43:16 GMT